{"data":{"norad_id":68349,"intl_designator":"2026-059AE","name":"STARLINK-37183","alt_names":[],"object_type":"PAYLOAD","status":"ACTIVE","operator":null,"country":"US","launch_date":"2026-03-22","launch_site_code":"AFETR","launch_vehicle":null,"mission":null,"orbit_class":"UNKNOWN","rcs_meters":null,"size_class":null,"mass_kg":null,"dimensions":null,"purposes":["comms"],"wikipedia_slug":null,"has_3d_model":false,"image_url":null,"decayed_at":null,"tle_current":{"epoch":"2026-09-20T04:45:42.465024Z","epoch_age_seconds":74507,"freshness":"FRESH","line1":"1 68349U 26059AE  26263.19840816  .00019558  00000+0  58839-3 0  9991","line2":"2 68349  53.1603 162.8109 0000993  74.7164 285.3948 15.34403239 27986","mean_motion":15.34403239,"eccentricity":9.93e-5,"inclination_deg":53.1603,"raan_deg":162.8109,"arg_perigee_deg":74.7164,"mean_anomaly_deg":285.3948,"bstar":0.00058839,"rev_number":2798,"period_min":93.847559976377,"perigee_km":462.01431875356,"apogee_km":463.37290771335,"semimajor_km":6840.8306132335,"source":"CELESTRAK","updated_at":"2026-09-20T09:00:43.891459Z"}}}